Stations météo

réclame
Mon MeteoGroup
Tain Range, Grande-Bretagne (3062): Température de l'air & dewpoint: 12.06.2018 12:00:00 - 18.06.2018 12:00:00 (BST)Tain Range, Grande-Bretagne (3062): Température de l'air -20cm & Température de l'air -100cm: 12.06.2018 12:00:00 - 18.06.2018 12:00:00 (BST)Tain Range, Grande-Bretagne (3062): Vitesse du vent & gusts: 12.06.2018 12:00:00 - 18.06.2018 12:00:00 (BST)Tain Range, Grande-Bretagne (3062): Direction du vent: 12.06.2018 12:00:00 - 18.06.2018 12:00:00 (BST)Tain Range, Grande-Bretagne (3062): reduced air pressure: 12.06.2018 12:00:00 - 18.06.2018 12:00:00 (BST)Tain Range, Grande-Bretagne (3062): visibility: 12.06.2018 12:00:00 - 18.06.2018 12:00:00 (BST)Tain Range, Grande-Bretagne (3062): Quantités de précipitations: 12.06.2018 12:00:00 - 18.06.2018 12:00:00 (BST)
Date & Time tt [°C] td [°C] tt -20cm [°C] tt -100cm [°C] ff [km/h] ff [knt] fx [km/h] fx [knt] dd ppp [hPa] vv [km] rr [mm]
18.06.2018 12:00:00 - - - - - - - - - - - -
18.06.2018 11:00:00 - - - - - - - - - - - -
18.06.2018 10:00:00 14,8 6,0 13,4 12,0 39 21 59 32 WSW 1005,9 26 0,0
18.06.2018 09:00:00 13,3 5,5 - - 35 19 50 27 WSW 1006,0 25 0,0
18.06.2018 08:00:00 12,9 4,8 - - 35 19 55 30 WSW 1005,3 35 0,0
18.06.2018 07:00:00 12,2 5,6 - - 29 16 - - WSW 1005,4 18 0,0
18.06.2018 06:00:00 11,9 6,2 - - 22 12 - - WSW 1005,4 22 0,0
18.06.2018 05:00:00 11,7 5,8 - - 31 17 52 28 WSW 1004,7 23 0,0
18.06.2018 04:00:00 12,3 6,9 - - 37 20 50 27 WSW 1004,3 19 0,0
18.06.2018 03:00:00 12,8 6,9 - - 35 19 54 29 WSW 1004,0 50 0,0
18.06.2018 02:00:00 13,6 7,5 - - 31 17 - - WSW 1004,3 50 0,0
18.06.2018 01:00:00 14,0 9,8 - - 8 4 - - WSW 1004,0 50 0,0
18.06.2018 00:00:00 13,7 11,0 - - 13 7 - - SW 1003,7 50 0,0
17.06.2018 23:00:00 13,7 11,0 - - 16 9 - - SSW 1003,6 50 0,0
17.06.2018 22:00:00 13,6 10,5 - - 28 15 - - SSW 1003,1 50 0,0
17.06.2018 21:00:00 13,6 10,7 - - 15 8 - - S 1003,8 40 0,0
17.06.2018 20:00:00 13,7 10,9 - - 11 6 - - S 1004,4 50 0,0
17.06.2018 19:00:00 15,1 9,5 - - 18 10 - - SSW 1004,6 50 0,0
17.06.2018 18:00:00 16,1 9,1 - - 15 8 - - SSW 1004,8 40 0,0
17.06.2018 17:00:00 16,4 9,1 - - 13 7 - - SSW 1005,4 40 0,0
17.06.2018 16:00:00 17,3 8,4 - - 22 12 - - SSW 1005,7 50 0,0
17.06.2018 15:00:00 17,0 9,8 - - 15 8 - - SSW 1006,2 35 0,0
17.06.2018 14:00:00 16,9 10,2 - - 13 7 - - S 1006,6 45 0,0
17.06.2018 13:00:00 15,5 8,4 - - 22 12 - - SSW 1006,6 50 0,0
17.06.2018 12:00:00 15,8 8,7 - - 18 10 - - SSW 1006,9 30 0,0
17.06.2018 11:00:00 15,1 7,7 - - 16 9 - - SSW 1007,0 45 0,0
17.06.2018 10:00:00 13,5 7,8 13,0 12,0 18 10 - - SSW 1007,0 50 0,0
17.06.2018 09:00:00 13,1 8,9 - - 16 9 - - SW 1007,0 30 0,0
17.06.2018 08:00:00 11,0 8,8 - - 11 6 - - SW 1007,0 35 0,0
17.06.2018 07:00:00 10,3 8,6 - - 13 7 - - SW 1007,0 30 0,0
17.06.2018 06:00:00 10,4 9,2 - - 9 5 - - SSW 1006,9 40 0,0
17.06.2018 05:00:00 10,2 9,5 - - 5 3 - - SW 1006,8 45 0,0
17.06.2018 04:00:00 10,4 9,4 - - 8 4 - - SSW 1006,8 28 0,0
17.06.2018 03:00:00 10,4 9,5 - - 9 5 - - SSW 1006,7 45 0,0
17.06.2018 02:00:00 10,3 9,0 - - 8 4 - - W 1006,6 24 0,2
17.06.2018 01:00:00 11,8 9,6 - - 16 9 - - WNW 1006,9 45 0,0
17.06.2018 00:00:00 11,6 9,9 - - 18 10 - - WNW 1006,1 50 0,0
16.06.2018 23:00:00 11,4 9,8 - - 5 3 - - SSW 1006,0 50 0,0
16.06.2018 22:00:00 12,0 9,7 - - 8 4 - - SE 1006,0 50 0,0
16.06.2018 21:00:00 13,0 9,3 - - 9 5 - - SE 1005,6 45 0,0
16.06.2018 20:00:00 12,8 10,2 - - 13 7 - - SSE 1005,3 40 0,0
16.06.2018 19:00:00 13,1 10,3 - - 15 8 - - SE 1005,3 45 0,0
16.06.2018 18:00:00 12,7 10,6 - - 21 11 - - SSE 1005,3 21 0,6
16.06.2018 17:00:00 13,1 10,7 - - 18 10 - - ESE 1005,6 50 0,0
16.06.2018 16:00:00 13,3 10,9 - - 18 10 - - ESE 1005,7 27 0,2
16.06.2018 15:00:00 13,2 10,8 - - 16 9 - - ESE 1005,9 22 0,6
16.06.2018 14:00:00 13,3 11,2 - - 11 6 - - SSE 1006,2 15 0,6
16.06.2018 13:00:00 14,1 10,2 - - 13 7 - - S 1006,5 30 0,2
16.06.2018 12:00:00 14,9 9,0 - - 15 8 - - S 1006,6 30 0,0
16.06.2018 11:00:00 14,1 9,8 - - 11 6 - - SE 1006,7 35 0,0
16.06.2018 10:00:00 12,5 8,6 13,2 12,0 15 8 - - SE 1007,1 45 0,0
16.06.2018 09:00:00 12,7 7,9 - - 18 10 - - SE 1007,5 40 0,0
16.06.2018 08:00:00 11,9 8,3 - - 18 10 - - SE 1007,8 50 0,0
16.06.2018 07:00:00 12,5 8,9 - - 13 7 - - SE 1008,0 50 0,0
16.06.2018 06:00:00 9,8 7,8 - - 8 4 - - SSE 1008,1 45 0,0
16.06.2018 05:00:00 7,6 6,9 - - 11 6 - - S 1008,4 45 0,0
16.06.2018 04:00:00 8,4 7,5 - - 4 2 - - SE 1009,0 45 0,0
16.06.2018 03:00:00 8,4 6,8 - - 8 4 - - WSW 1009,4 50 0,0
16.06.2018 02:00:00 8,7 6,7 - - 5 3 - - SSE 1009,6 50 0,0
16.06.2018 01:00:00 10,0 6,8 - - 11 6 - - SW 1009,9 50 0,0
16.06.2018 00:00:00 11,3 6,8 - - 21 11 - - SW 1009,6 50 0,0
15.06.2018 23:00:00 11,5 7,6 - - 13 7 - - SW 1009,6 50 0,0
15.06.2018 22:00:00 12,3 8,1 - - 15 8 - - SSW 1009,6 45 0,0
15.06.2018 21:00:00 13,7 6,4 - - 11 6 - - SW 1009,2 50 0,0
15.06.2018 20:00:00 15,1 6,3 - - 21 11 - - SW 1008,9 50 0,0
15.06.2018 19:00:00 16,3 6,2 - - 21 11 - - WSW 1008,6 50 0,0
15.06.2018 18:00:00 16,8 8,4 - - 18 10 - - WSW 1008,6 35 0,0
15.06.2018 17:00:00 13,8 9,7 - - 9 5 - - SW 1008,7 18 0,8
15.06.2018 16:00:00 17,8 8,9 - - 22 12 - - W 1008,5 30 0,0
15.06.2018 15:00:00 14,7 7,8 - - 24 13 - - W 1008,5 45 0,0
15.06.2018 14:00:00 16,2 7,9 - - 18 10 - - W 1008,0 30 0,0
15.06.2018 13:00:00 14,1 7,4 - - 22 12 - - WSW 1008,2 40 0,0
15.06.2018 12:00:00 15,1 7,1 - - 28 15 - - SW 1007,6 45 0,0
15.06.2018 11:00:00 13,1 7,1 - - 22 12 - - WSW 1007,5 19 0,0
15.06.2018 10:00:00 14,4 7,1 13,0 12,2 24 13 - - SSW 1006,9 35 0,0
15.06.2018 09:00:00 13,6 7,0 - - 26 14 - - SW 1006,7 50 0,0
15.06.2018 08:00:00 12,6 7,4 - - 31 17 - - SW 1006,0 45 0,0
15.06.2018 07:00:00 11,5 7,4 - - 21 11 - - SSW 1005,7 45 0,0
15.06.2018 06:00:00 10,6 7,6 - - 24 13 - - SSW 1005,3 50 0,0
15.06.2018 05:00:00 9,9 6,9 - - 24 13 - - SW 1005,0 50 0,0
15.06.2018 04:00:00 9,6 6,4 - - 21 11 - - SW 1004,9 50 0,0
15.06.2018 03:00:00 8,4 5,3 - - 13 7 - - SW 1004,7 30 0,0
15.06.2018 02:00:00 9,2 6,0 - - 16 9 - - SSE 1004,7 50 0,0
15.06.2018 01:00:00 10,0 5,7 - - 13 7 - - SW 1004,5 50 0,0
15.06.2018 00:00:00 9,0 5,0 - - 13 7 - - SW 1004,3 45 0,0
14.06.2018 23:00:00 10,5 5,1 - - 34 18 46 25 WSW 1003,9 45 0,0
14.06.2018 22:00:00 10,6 4,8 - - 26 14 48 26 WSW 1003,2 45 0,0
14.06.2018 21:00:00 12,0 4,8 - - 29 16 61 33 WSW 1002,5 23 0,0
14.06.2018 20:00:00 12,7 5,7 - - 34 18 59 32 WSW 1001,7 35 0,0
14.06.2018 19:00:00 12,3 5,8 - - 44 24 74 40 W 1000,7 40 0,0
14.06.2018 18:00:00 10,9 7,5 - - 41 22 72 39 W 999,7 35 0,2
14.06.2018 17:00:00 14,1 3,9 - - 46 25 72 39 W 998,1 50 0,0
14.06.2018 16:00:00 13,0 6,4 - - 52 28 80 43 W 996,7 10 0,0
14.06.2018 15:00:00 14,7 5,3 - - 54 29 83 45 W 994,8 17 0,0
14.06.2018 14:00:00 13,1 6,6 - - 50 27 81 44 W 993,1 23 0,0
14.06.2018 13:00:00 12,1 9,5 - - 57 31 89 48 W 990,6 5 0,2
14.06.2018 12:00:00 12,7 9,4 - - 59 32 85 46 W 987,8 8 0,0
14.06.2018 11:00:00 13,3 9,6 - - 50 27 74 40 W 984,3 45 0,2
14.06.2018 10:00:00 15,7 10,9 13,4 12,2 34 18 59 32 SW 980,5 50 0,0
14.06.2018 09:00:00 17,4 10,9 - - 42 23 78 42 SW 979,7 40 0,0
14.06.2018 08:00:00 16,8 10,5 - - 48 26 68 37 SSW 979,5 40 0,0
14.06.2018 07:00:00 16,4 11,3 - - 39 21 72 39 S 980,5 45 0,0
14.06.2018 06:00:00 17,1 11,8 - - 35 19 70 38 SSW 981,5 50 0,0
14.06.2018 05:00:00 16,3 13,1 - - 50 27 76 41 SSW 982,9 6 0,0
14.06.2018 04:00:00 16,0 13,6 - - 24 13 48 26 SSW 984,7 50 0,0
14.06.2018 03:00:00 15,4 13,1 - - 35 19 54 29 S 986,3 50 0,0
14.06.2018 02:00:00 14,8 11,9 - - 28 15 - - S 987,7 50 0,0
14.06.2018 01:00:00 14,3 11,6 - - 18 10 - - S 989,4 50 0,0
14.06.2018 00:00:00 13,6 11,8 - - 22 12 - - SSE 991,6 50 0,8
13.06.2018 23:00:00 13,4 11,4 - - 16 9 - - SSE 994,6 26 0,4
13.06.2018 22:00:00 13,2 11,3 - - 16 9 - - SSE 996,5 40 0,6
13.06.2018 21:00:00 13,8 11,4 - - 13 7 - - S 998,5 30 0,0
13.06.2018 20:00:00 14,0 11,6 - - 15 8 - - SE 1000,2 21 0,0
13.06.2018 19:00:00 13,6 11,8 - - 13 7 - - SE 1001,9 26 0,0
13.06.2018 18:00:00 13,3 11,4 - - 16 9 - - SSE 1003,4 25 0,0
13.06.2018 17:00:00 12,9 11,1 - - 11 6 - - SSE 1005,0 18 0,2
13.06.2018 16:00:00 13,1 11,1 - - 11 6 - - S 1006,3 30 0,6
13.06.2018 15:00:00 13,0 10,0 - - 9 5 - - SSW 1007,4 50 0,2
13.06.2018 14:00:00 13,2 8,4 - - 16 9 - - SSW 1008,4 40 0,0
13.06.2018 13:00:00 14,1 7,1 - - 16 9 - - SSW 1009,3 30 0,0
13.06.2018 12:00:00 14,5 6,3 - - 21 11 - - SW 1010,1 50 0,0
13.06.2018 11:00:00 15,5 7,6 - - 15 8 - - SSW 1011,0 45 0,0
13.06.2018 10:00:00 14,7 7,4 13,5 12,4 18 10 - - SW 1011,9 28 0,0
13.06.2018 09:00:00 13,1 7,8 - - 9 5 - - SSE 1012,8 50 0,0
13.06.2018 08:00:00 12,7 8,7 - - 11 6 - - SE 1013,5 50 0,0
13.06.2018 07:00:00 11,4 7,0 - - 2 1 - - NE 1014,1 45 0,0
13.06.2018 06:00:00 8,6 7,4 - - 2 1 - - SSW 1015,4 50 0,0
13.06.2018 05:00:00 7,8 6,5 - - 5 3 - - WSW 1016,0 45 0,0
13.06.2018 04:00:00 8,6 6,5 - - 4 2 - - S 1016,7 45 0,0
13.06.2018 03:00:00 8,8 6,7 - - 2 1 - - W 1017,4 45 0,0
13.06.2018 02:00:00 8,7 6,3 - - 8 4 - - W 1018,2 45 0,0
13.06.2018 01:00:00 8,9 5,8 - - 11 6 - - NNW 1018,4 45 0,0
13.06.2018 00:00:00 10,4 6,2 - - 9 5 - - NNW 1018,7 50 0,0
12.06.2018 23:00:00 11,1 6,3 - - 13 7 - - NNW 1019,1 50 0,0
12.06.2018 22:00:00 12,2 4,3 - - 21 11 - - NW 1019,0 50 0,0
12.06.2018 21:00:00 13,0 4,5 - - 18 10 - - NW 1019,0 50 0,0
12.06.2018 20:00:00 13,6 4,9 - - 22 12 - - NW 1019,1 50 0,0
12.06.2018 19:00:00 14,5 5,4 - - 24 13 - - NW 1019,1 45 0,0
12.06.2018 18:00:00 15,2 4,8 - - 21 11 - - NW 1019,0 50 0,0
12.06.2018 17:00:00 15,0 5,2 - - 22 12 - - NW 1019,1 40 0,0
12.06.2018 16:00:00 15,4 5,4 - - 28 15 - - NW 1019,4 50 0,0
12.06.2018 15:00:00 15,1 6,6 - - 22 12 - - NW 1019,4 50 0,0
12.06.2018 14:00:00 15,0 6,8 - - 21 11 - - NW 1019,7 50 0,0
12.06.2018 13:00:00 14,4 8,0 - - 16 9 - - NW 1019,8 50 0,0
12.06.2018 12:00:00 12,2 9,8 - - 9 5 - - NW 1019,9 12 0,0

tt = Température de l'air
td = dewpoint
tt -20cm = Température de l'air -20cm
tt -100cm = Température de l'air -100cm
ff = Vitesse du vent
fx = gusts
dd = Direction du vent
ppp = reduced air pressure
vv = visibility
rr = Quantités de précipitations

stations d'obs. à proximité